Location: *
(41.3833°S, 177.8333°W)
Time: 01:44:57
(UTC+00:00)

USA 215 - Pass Details

Date: 01 April 2020
Orbit: 1098 x 1110 km, 123.0° (Epoch: 27 May)

Event Time Altitude Azimuth Distance (km) Brightness Sun altitude
Rises 15:36:14 0° 43° (NE) 3,923 6.4 -28.8°
Reaches altitude 10° 15:38:43 10° 41° (NE) 2,972 5.7 -28.4°
Maximum altitude 15:45:18 75° 316° (NW) 1,158 3.1 -27.2°
Enters shadow 15:46:59 53° 247° (WSW) 1,360 3.4 -26.9°
